UAE398 OMDB-WADD

Flight info

Callsign UAE398
Flight time N/A
Altitude 37000
Route IVURO M677 LALDO B505 NADSO A777 VAXIM P307 PARAR N571 AGELA/N0489F390 N571 GUNIP M630 VESIS/N0485F410 M630 JUNHA M635 UDONO
Aircraft A359/H-SDE2E3GHIJ3J4J5LM1ORWXY/LB1D1

Departure

Time 2026-04-25 08:39
Airport Dubai International Airport (OMDB)

Arrival

Time N/A
Airport Denpasar I Gusti Ngurah Rai International Airport (WADD)
Time Latitude Longitude Altitude Speed Heading
2026-04-25 08:26 25.24856 55.36542 44 ft 0 kts 122°
2026-04-25 08:29 25.24855 55.36543 44 ft 0 kts 122°
2026-04-25 08:30 25.24852 55.36550 44 ft 1 kts 122°
2026-04-25 08:30 25.24843 55.36564 44 ft 2 kts 122°
2026-04-25 08:30 25.24831 55.36588 44 ft 3 kts 118°
2026-04-25 08:30 25.24817 55.36617 44 ft 4 kts 115°
2026-04-25 08:31 25.24804 55.36654 44 ft 5 kts 110°
2026-04-25 08:31 25.24791 55.36700 44 ft 6 kts 105°
2026-04-25 08:31 25.24778 55.36756 44 ft 8 kts 104°
2026-04-25 08:31 25.24761 55.36815 44 ft 8 kts 111°
2026-04-25 08:32 25.24741 55.36871 44 ft 5 kts 103°
2026-04-25 08:32 25.24739 55.36907 44 ft 4 kts 80°
2026-04-25 08:32 25.24757 55.36937 44 ft 5 kts 44°
2026-04-25 08:32 25.24777 55.36955 44 ft 3 kts 36°
2026-04-25 08:33 25.24799 55.36971 44 ft 3 kts 31°
2026-04-25 08:33 25.24811 55.36979 44 ft 0 kts 31°
2026-04-25 08:34 25.24834 55.36995 44 ft 9 kts 31°
2026-04-25 08:35 25.24899 55.37038 44 ft 11 kts 31°
2026-04-25 08:35 25.24968 55.37085 44 ft 12 kts 31°
2026-04-25 08:35 25.25040 55.37141 44 ft 12 kts 51°
2026-04-25 08:35 25.25039 55.37235 44 ft 13 kts 116°
2026-04-25 08:36 25.24989 55.37329 44 ft 14 kts 120°
2026-04-25 08:36 25.24933 55.37431 44 ft 16 kts 121°
2026-04-25 08:36 25.24873 55.37540 44 ft 16 kts 121°
2026-04-25 08:36 25.24811 55.37651 44 ft 17 kts 121°
2026-04-25 08:37 25.24746 55.37766 44 ft 18 kts 121°
2026-04-25 08:37 25.24705 55.37843 44 ft 8 kts 120°
2026-04-25 08:37 25.24677 55.37913 44 ft 11 kts 93°
2026-04-25 08:37 25.24729 55.37992 44 ft 14 kts 32°
2026-04-25 08:38 25.24828 55.37981 44 ft 16 kts 312°
2026-04-25 08:38 25.24853 55.37940 44 ft 0 kts 301°
2026-04-25 08:38 25.24927 55.37808 44 ft 53 kts 300°
2026-04-25 08:38 25.25238 55.37248 44 ft 115 kts 301°
2026-04-25 08:39 25.25765 55.36303 45 ft 168 kts 301°
2026-04-25 08:39 25.26417 55.35147 452 ft 180 kts 300°
2026-04-25 08:39 25.27036 55.33986 1245 ft 170 kts 302°
2026-04-25 08:39 25.27636 55.32912 1933 ft 166 kts 302°
2026-04-25 08:40 25.28259 55.31792 2352 ft 179 kts 302°
2026-04-25 08:40 25.28919 55.30605 2632 ft 187 kts 303°
2026-04-25 08:40 25.29859 55.29563 2809 ft 198 kts 339°
2026-04-25 08:40 25.31235 55.29402 3078 ft 205 kts
2026-04-25 08:41 25.32716 55.29465 3305 ft 216 kts
2026-04-25 08:41 25.34244 55.29531 3522 ft 228 kts
2026-04-25 08:41 25.35887 55.29589 3785 ft 238 kts
2026-04-25 08:41 25.37555 55.29640 3911 ft 239 kts
2026-04-25 08:42 25.39226 55.29771 3871 ft 238 kts 14°
2026-04-25 08:42 25.40648 55.30713 3956 ft 247 kts 46°
2026-04-25 08:42 25.41785 55.32249 3985 ft 269 kts 51°
2026-04-25 08:42 25.42947 55.33910 3972 ft 275 kts 51°
2026-04-25 08:43 25.44137 55.35593 3974 ft 276 kts 50°
2026-04-25 08:43 25.45330 55.37249 3977 ft 276 kts 50°
2026-04-25 08:43 25.46541 55.38914 3976 ft 276 kts 50°
2026-04-25 08:43 25.47735 55.40549 3975 ft 276 kts 50°
2026-04-25 08:44 25.48963 55.42244 4158 ft 282 kts 51°
2026-04-25 08:44 25.50163 55.43961 4766 ft 281 kts 51°
2026-04-25 08:44 25.51354 55.45681 5346 ft 282 kts 51°
2026-04-25 08:44 25.52521 55.47414 5926 ft 286 kts 58°
2026-04-25 08:45 25.53137 55.49492 6374 ft 289 kts 89°
2026-04-25 08:45 25.52760 55.51652 6998 ft 287 kts 117°
2026-04-25 08:45 25.51718 55.53532 7536 ft 289 kts 124°
2026-04-25 08:45 25.50586 55.55402 8024 ft 294 kts 124°
2026-04-25 08:46 25.49454 55.57305 8583 ft 296 kts 124°
2026-04-25 08:46 25.48333 55.59229 9160 ft 298 kts 124°
2026-04-25 08:46 25.47219 55.61166 9732 ft 299 kts 123°
2026-04-25 08:46 25.46108 55.63111 10274 ft 302 kts 123°
2026-04-25 08:47 25.44965 55.65113 10558 ft 315 kts 124°
2026-04-25 08:47 25.43771 55.67221 10835 ft 328 kts 121°
2026-04-25 08:47 25.42724 55.69509 11065 ft 342 kts 113°
2026-04-25 08:47 25.41965 55.72055 11305 ft 355 kts 106°
2026-04-25 08:48 25.41380 55.74769 11553 ft 368 kts 104°
2026-04-25 08:48 25.40813 55.77554 11855 ft 378 kts 104°
2026-04-25 08:48 25.40216 55.80445 12126 ft 389 kts 104°
2026-04-25 08:48 25.39601 55.83365 12570 ft 393 kts 104°
2026-04-25 08:49 25.38971 55.86342 13118 ft 395 kts 104°
2026-04-25 08:49 25.38343 55.89286 13622 ft 398 kts 104°
2026-04-25 08:49 25.37709 55.92255 14075 ft 401 kts 104°
2026-04-25 08:49 25.36842 55.96295 14713 ft 406 kts 104°
2026-04-25 08:50 25.36408 55.98320 15028 ft 408 kts 104°
2026-04-25 08:50 25.35749 56.01398 15454 ft 411 kts 104°
2026-04-25 08:50 25.35087 56.04481 15876 ft 415 kts 104°
2026-04-25 08:50 25.34420 56.07586 16298 ft 418 kts 104°
2026-04-25 08:51 25.33744 56.10724 16733 ft 421 kts 104°
2026-04-25 08:51 25.33105 56.13882 17158 ft 424 kts 102°
2026-04-25 08:51 25.32618 56.17119 17577 ft 427 kts 98°
2026-04-25 08:51 25.32300 56.20379 17975 ft 431 kts 96°
2026-04-25 08:52 25.32030 56.23702 18376 ft 434 kts 95°
2026-04-25 08:52 25.31766 56.27020 18773 ft 437 kts 95°
2026-04-25 08:52 25.31497 56.30375 19163 ft 439 kts 96°
2026-04-25 08:52 25.31220 56.33749 19533 ft 443 kts 96°
2026-04-25 08:53 25.30934 56.37167 19900 ft 446 kts 96°
2026-04-25 08:53 25.30709 56.40573 20276 ft 448 kts 93°
2026-04-25 08:53 25.30592 56.44044 20640 ft 451 kts 92°
2026-04-25 08:53 25.30497 56.47487 20994 ft 454 kts 92°
2026-04-25 08:54 25.30401 56.50999 21354 ft 457 kts 92°
2026-04-25 08:54 25.30300 56.54523 21682 ft 460 kts 92°
2026-04-25 08:54 25.30026 56.58066 22010 ft 462 kts 99°
2026-04-25 08:54 25.29362 56.61536 22368 ft 463 kts 107°
2026-04-25 08:55 25.28325 56.64883 22700 ft 464 kts 113°
2026-04-25 08:55 25.27096 56.68169 23036 ft 467 kts 114°
2026-04-25 08:55 25.25808 56.71510 23362 ft 469 kts 114°
2026-04-25 08:55 25.24545 56.74783 23660 ft 472 kts 114°
2026-04-25 08:56 25.23255 56.78142 23953 ft 474 kts 114°
2026-04-25 08:56 25.21963 56.81520 24246 ft 477 kts 114°
2026-04-25 08:56 25.20670 56.84907 24524 ft 479 kts 114°
2026-04-25 08:56 25.19365 56.88329 24805 ft 481 kts 114°
2026-04-25 08:57 25.18072 56.91723 25087 ft 483 kts 114°
2026-04-25 08:57 25.16762 56.95163 25384 ft 485 kts 114°
2026-04-25 08:57 25.15449 56.98608 25639 ft 488 kts 114°
2026-04-25 08:57 25.14135 57.02052 25874 ft 490 kts 114°
2026-04-25 08:58 25.12807 57.05533 26132 ft 492 kts 114°
2026-04-25 08:58 25.11475 57.09019 26390 ft 494 kts 114°
2026-04-25 08:58 25.10145 57.12497 26662 ft 495 kts 114°
2026-04-25 08:58 25.08802 57.16005 26898 ft 498 kts 114°
2026-04-25 08:59 25.07451 57.19532 27111 ft 500 kts 114°
2026-04-25 08:59 25.06106 57.23038 27333 ft 502 kts 114°
2026-04-25 08:59 25.04732 57.26620 27570 ft 504 kts 114°
2026-04-25 08:59 25.03379 57.30146 27789 ft 506 kts 114°
2026-04-25 09:00 25.02005 57.33722 28057 ft 506 kts 114°
2026-04-25 09:00 25.00632 57.37291 28403 ft 505 kts 113°
2026-04-25 09:00 24.99266 57.40841 28750 ft 504 kts 113°
2026-04-25 09:00 24.97909 57.44364 29039 ft 504 kts 113°
2026-04-25 09:01 24.96534 57.47931 29342 ft 503 kts 113°
2026-04-25 09:01 24.95164 57.51485 29657 ft 502 kts 113°
2026-04-25 09:01 24.93814 57.54986 29937 ft 502 kts 114°
2026-04-25 09:01 24.92447 57.58524 30223 ft 502 kts 114°
2026-04-25 09:02 24.91098 57.62015 30491 ft 501 kts 114°
2026-04-25 09:02 24.89721 57.65573 30798 ft 500 kts 114°
2026-04-25 09:02 24.88347 57.69104 31077 ft 499 kts 114°
2026-04-25 09:02 24.86989 57.72590 31327 ft 498 kts 114°
2026-04-25 09:03 24.85626 57.76097 31568 ft 498 kts 114°
2026-04-25 09:03 24.84279 57.79563 31809 ft 497 kts 114°
2026-04-25 09:03 24.82879 57.83070 32030 ft 497 kts 116°
2026-04-25 09:03 24.81387 57.86506 32247 ft 496 kts 116°
2026-04-25 09:04 24.79890 57.89920 32473 ft 496 kts 116°
2026-04-25 09:04 24.78388 57.93342 32690 ft 495 kts 116°
2026-04-25 09:04 24.76879 57.96782 32936 ft 494 kts 116°
2026-04-25 09:04 24.75392 58.00175 33174 ft 492 kts 116°
2026-04-25 09:05 24.73924 58.03530 33356 ft 492 kts 116°
2026-04-25 09:05 24.72439 58.06922 33529 ft 492 kts 116°
2026-04-25 09:05 24.70946 58.10331 33729 ft 491 kts 116°
2026-04-25 09:05 24.69480 58.13677 33899 ft 491 kts 116°
2026-04-25 09:06 24.67991 58.17076 34038 ft 492 kts 116°
2026-04-25 09:06 24.66501 58.20468 34177 ft 492 kts 116°
2026-04-25 09:06 24.65017 58.23850 34341 ft 491 kts 116°
2026-04-25 09:06 24.63524 58.27248 34527 ft 491 kts 116°
2026-04-25 09:07 24.62048 58.30606 34673 ft 491 kts 116°
2026-04-25 09:07 24.60572 58.33961 34804 ft 491 kts 116°
2026-04-25 09:07 24.59095 58.37318 34929 ft 491 kts 116°
2026-04-25 09:07 24.57608 58.40692 35046 ft 491 kts 116°
2026-04-25 09:08 24.56112 58.44084 35147 ft 492 kts 116°
2026-04-25 09:08 24.54633 58.47438 35274 ft 491 kts 116°
2026-04-25 09:08 24.53127 58.50850 35364 ft 492 kts 116°
2026-04-25 09:09 24.50154 58.57581 35525 ft 493 kts 116°
2026-04-25 09:09 24.47160 58.64355 35696 ft 494 kts 116°
2026-04-25 09:10 24.44176 58.71126 35845 ft 495 kts 116°
2026-04-25 09:10 24.41153 58.77944 35960 ft 496 kts 116°
2026-04-25 09:11 24.36600 58.88149 36166 ft 497 kts 116°
2026-04-25 09:11 24.33574 58.94936 36284 ft 498 kts 116°
2026-04-25 09:12 24.30544 59.01732 36368 ft 499 kts 116°
2026-04-25 09:12 24.27491 59.08566 36482 ft 499 kts 116°
2026-04-25 09:13 24.24440 59.15387 36589 ft 499 kts 116°
2026-04-25 09:13 24.21385 59.22209 36674 ft 500 kts 116°
2026-04-25 09:14 24.18317 59.29053 36789 ft 500 kts 116°
2026-04-25 09:14 24.15271 59.35840 36864 ft 501 kts 116°
2026-04-25 09:15 24.12183 59.42718 36941 ft 501 kts 116°
2026-04-25 09:15 24.09122 59.49517 36933 ft 502 kts 116°
2026-04-25 09:16 24.06015 59.56376 36943 ft 502 kts 116°
2026-04-25 09:16 24.02931 59.63180 36932 ft 502 kts 116°
2026-04-25 09:17 23.98303 59.73425 36887 ft 501 kts 116°
2026-04-25 09:18 23.95213 59.80255 36887 ft 501 kts 116°
2026-04-25 09:18 23.92127 59.87052 36893 ft 501 kts 116°
2026-04-25 09:19 23.89018 59.93879 36885 ft 501 kts 116°
2026-04-25 09:19 23.85885 60.00685 36889 ft 501 kts 116°
2026-04-25 09:20 23.82766 60.07481 36896 ft 501 kts 116°
2026-04-25 09:20 23.79676 60.14237 36890 ft 500 kts 116°
2026-04-25 09:21 23.76556 60.21053 36894 ft 500 kts 116°
2026-04-25 09:21 23.73456 60.27819 36897 ft 500 kts 115°
2026-04-25 09:22 23.70362 60.34563 36890 ft 500 kts 116°
2026-04-25 09:22 23.67246 60.41346 36895 ft 500 kts 115°
2026-04-25 09:23 23.64137 60.48104 36890 ft 500 kts 116°
2026-04-25 09:23 23.61021 60.54867 36900 ft 499 kts 116°
2026-04-25 09:24 23.57926 60.61576 36895 ft 499 kts 115°
2026-04-25 09:24 23.54816 60.68317 36902 ft 499 kts 116°
2026-04-25 09:25 23.51695 60.75093 36898 ft 498 kts 116°
2026-04-25 09:25 23.48576 60.81839 36903 ft 499 kts 116°
2026-04-25 09:26 23.45473 60.88531 36902 ft 498 kts 116°
2026-04-25 09:26 23.42342 60.95274 36897 ft 498 kts 116°
2026-04-25 09:27 23.39206 61.02020 36908 ft 498 kts 116°
2026-04-25 09:27 23.36084 61.08732 36899 ft 498 kts 116°
2026-04-25 09:28 23.32971 61.15415 36902 ft 497 kts 116°
2026-04-25 09:28 23.29869 61.22161 36905 ft 497 kts 115°
2026-04-25 09:29 23.26883 61.28892 36897 ft 497 kts 114°
2026-04-25 09:29 23.23895 61.35636 36903 ft 496 kts 114°
2026-04-25 09:30 23.20897 61.42375 36907 ft 496 kts 114°
2026-04-25 09:30 23.17905 61.49085 36903 ft 495 kts 114°
2026-04-25 09:31 23.14923 61.55767 36910 ft 495 kts 114°
2026-04-25 09:31 23.11920 61.62490 36904 ft 495 kts 114°
2026-04-25 09:32 23.08942 61.69165 36913 ft 494 kts 115°
2026-04-25 09:32 23.05931 61.75893 36906 ft 494 kts 115°
2026-04-25 09:33 23.02934 61.82546 36903 ft 494 kts 115°
2026-04-25 09:33 22.99923 61.89228 36914 ft 493 kts 115°
2026-04-25 09:34 22.96921 61.95892 36912 ft 493 kts 115°
2026-04-25 09:34 22.93898 62.02592 36904 ft 493 kts 115°
2026-04-25 09:35 22.90890 62.09252 36910 ft 492 kts 115°
2026-04-25 09:35 22.87878 62.15875 36911 ft 492 kts 115°
2026-04-25 09:36 22.84834 62.22532 36909 ft 492 kts 115°
2026-04-25 09:36 22.81819 62.29155 36911 ft 491 kts 115°
2026-04-25 09:37 22.78805 62.35788 36913 ft 491 kts 114°
2026-04-25 09:37 22.75782 62.42433 36912 ft 491 kts 114°
2026-04-25 09:38 22.72769 62.49055 36908 ft 491 kts 115°
2026-04-25 09:38 22.69740 62.55697 36906 ft 491 kts 114°
2026-04-25 09:39 22.66722 62.62312 36911 ft 490 kts 114°
2026-04-25 09:39 22.63699 62.68938 36907 ft 490 kts 115°
2026-04-25 09:40 22.59184 62.78834 36915 ft 490 kts 115°
2026-04-25 09:40 22.56156 62.85442 36902 ft 490 kts 115°
2026-04-25 09:41 22.53128 62.92042 36914 ft 490 kts 115°
2026-04-25 09:41 22.50102 62.98632 36907 ft 490 kts 115°
2026-04-25 09:42 22.47069 63.05235 36903 ft 490 kts 115°
2026-04-25 09:42 22.44050 63.11789 36909 ft 489 kts 115°
2026-04-25 09:43 22.41081 63.18359 36908 ft 489 kts 114°
2026-04-25 09:43 22.38126 63.24969 36906 ft 489 kts 114°
2026-04-25 09:44 22.35156 63.31607 36914 ft 488 kts 114°
2026-04-25 09:44 22.32200 63.38200 36907 ft 488 kts 114°
2026-04-25 09:45 22.29247 63.44780 36906 ft 487 kts 114°
2026-04-25 09:45 22.26280 63.51380 36907 ft 487 kts 114°
2026-04-25 09:46 22.23331 63.57932 36912 ft 487 kts 114°
2026-04-25 09:46 22.20382 63.64474 36910 ft 487 kts 114°
2026-04-25 09:47 22.17411 63.71081 36909 ft 487 kts 114°
2026-04-25 09:47 22.14461 63.77632 36909 ft 486 kts 114°
2026-04-25 09:48 22.11503 63.84177 36908 ft 486 kts 114°
2026-04-25 09:48 22.08536 63.90729 36912 ft 485 kts 114°
2026-04-25 09:49 22.05567 63.97275 36915 ft 485 kts 114°
2026-04-25 09:49 22.02611 64.03781 36905 ft 485 kts 114°
2026-04-25 09:50 21.99640 64.10313 36912 ft 485 kts 114°
2026-04-25 09:50 21.96661 64.16856 36911 ft 486 kts 114°
2026-04-25 09:51 21.93697 64.23357 36910 ft 486 kts 114°
2026-04-25 09:51 21.90704 64.29911 36896 ft 486 kts 114°
2026-04-25 09:52 21.87711 64.36417 36906 ft 486 kts 114°
2026-04-25 09:52 21.84699 64.42937 36907 ft 486 kts 114°
2026-04-25 09:53 21.81708 64.49438 36909 ft 487 kts 114°
2026-04-25 09:53 21.78695 64.55997 36906 ft 487 kts 114°
2026-04-25 09:54 21.75718 64.62476 36904 ft 487 kts 114°
2026-04-25 09:54 21.72724 64.68994 36905 ft 487 kts 115°
2026-04-25 09:55 21.69855 64.75249 36904 ft 488 kts 115°
2026-04-25 09:55 21.66812 64.81859 36913 ft 488 kts 115°
2026-04-25 09:56 21.63789 64.88408 36907 ft 488 kts 115°
2026-04-25 09:56 21.60773 64.94933 36907 ft 488 kts 115°
2026-04-25 09:57 21.57747 65.01469 36911 ft 489 kts 115°
2026-04-25 09:57 21.54712 65.08018 36910 ft 489 kts 115°
2026-04-25 09:58 21.51704 65.14498 36911 ft 489 kts 115°
2026-04-25 09:58 21.48690 65.20985 36910 ft 489 kts 115°
2026-04-25 09:59 21.45640 65.27541 36901 ft 488 kts 115°
2026-04-25 09:59 21.42612 65.34040 36903 ft 488 kts 115°
2026-04-25 10:00 21.39587 65.40527 36907 ft 488 kts 115°
2026-04-25 10:00 21.36579 65.46968 36909 ft 488 kts 115°
2026-04-25 10:01 21.33526 65.53501 36908 ft 487 kts 115°
2026-04-25 10:01 21.30479 65.60011 36910 ft 487 kts 115°
2026-04-25 10:02 21.27454 65.66469 36914 ft 487 kts 115°
2026-04-25 10:02 21.24426 65.72952 36914 ft 487 kts 115°
2026-04-25 10:03 21.21392 65.79430 36910 ft 487 kts 115°
2026-04-25 10:03 21.18354 65.85896 36914 ft 487 kts 115°
2026-04-25 10:04 21.15301 65.92388 36909 ft 487 kts 115°
2026-04-25 10:04 21.12254 65.98856 36910 ft 488 kts 115°
2026-04-25 10:05 21.09241 66.05373 36908 ft 490 kts 114°
2026-04-25 10:05 21.06233 66.12006 36900 ft 493 kts 114°
2026-04-25 10:06 21.03236 66.18606 36898 ft 495 kts 114°
2026-04-25 10:06 21.00223 66.25227 36899 ft 497 kts 114°
2026-04-25 10:07 20.97203 66.31852 36902 ft 499 kts 114°
2026-04-25 10:07 20.94155 66.38529 36902 ft 500 kts 114°
2026-04-25 10:08 20.91130 66.45152 36889 ft 500 kts 114°
2026-04-25 10:08 20.88073 66.51801 36894 ft 500 kts 114°
2026-04-25 10:09 20.84998 66.58440 36901 ft 501 kts 114°
2026-04-25 10:09 20.81940 66.65077 36893 ft 500 kts 114°
2026-04-25 10:10 20.78886 66.71744 36895 ft 501 kts 114°
2026-04-25 10:10 20.75813 66.78445 36895 ft 501 kts 114°
2026-04-25 10:11 20.72775 66.85053 36895 ft 500 kts 114°
2026-04-25 10:11 20.69719 66.91685 36878 ft 498 kts 114°
2026-04-25 10:12 20.66647 66.98340 36888 ft 500 kts 114°
2026-04-25 10:13 20.62057 67.08270 36877 ft 495 kts 114°
2026-04-25 10:13 20.59012 67.14849 36884 ft 497 kts 114°
2026-04-25 10:14 20.55955 67.21444 36892 ft 494 kts 114°
2026-04-25 10:14 20.52927 67.27969 36885 ft 493 kts 114°
2026-04-25 10:15 20.49912 67.34458 36880 ft 491 kts 114°
2026-04-25 10:15 20.46866 67.41008 36880 ft 492 kts 114°
2026-04-25 10:16 20.43841 67.47501 36886 ft 491 kts 114°
2026-04-25 10:16 20.40802 67.54020 36875 ft 491 kts 114°
2026-04-25 10:17 20.37765 67.60526 36870 ft 492 kts 114°
2026-04-25 10:17 20.34704 67.67080 36881 ft 493 kts 115°
2026-04-25 10:18 20.31646 67.73644 36888 ft 496 kts 114°
2026-04-25 10:18 20.28582 67.80199 36884 ft 498 kts 115°
2026-04-25 10:19 20.25476 67.86825 36867 ft 501 kts 114°
2026-04-25 10:19 20.22366 67.93450 36879 ft 502 kts 115°
2026-04-25 10:20 20.19234 68.00109 36881 ft 503 kts 115°
2026-04-25 10:20 20.16123 68.06716 36878 ft 503 kts 115°
2026-04-25 10:21 20.12982 68.13380 36874 ft 502 kts 115°
2026-04-25 10:21 20.09844 68.20030 36872 ft 503 kts 115°
2026-04-25 10:22 20.06713 68.26657 36872 ft 503 kts 115°
2026-04-25 10:22 20.03578 68.33286 36868 ft 503 kts 115°
2026-04-25 10:23 20.00443 68.39905 36884 ft 503 kts 115°
2026-04-25 10:23 19.97292 68.46550 36872 ft 503 kts 115°
2026-04-25 10:24 19.94166 68.53136 36875 ft 502 kts 115°
2026-04-25 10:24 19.91005 68.59788 36874 ft 502 kts 115°
2026-04-25 10:25 19.87850 68.66386 36875 ft 503 kts 116°
2026-04-25 10:25 19.84681 68.73008 36874 ft 502 kts 116°
2026-04-25 10:26 19.81538 68.79596 36870 ft 502 kts 116°
2026-04-25 10:26 19.78367 68.86233 36872 ft 502 kts 116°
2026-04-25 10:27 19.75222 68.92818 36870 ft 502 kts 116°
2026-04-25 10:27 19.72064 68.99418 36872 ft 502 kts 116°
2026-04-25 10:28 19.68918 69.05991 36866 ft 502 kts 116°
2026-04-25 10:28 19.65764 69.12573 36868 ft 502 kts 116°
2026-04-25 10:29 19.62603 69.19162 36871 ft 502 kts 116°
2026-04-25 10:29 19.59446 69.25750 36870 ft 502 kts 116°
2026-04-25 10:30 19.56281 69.32343 36868 ft 503 kts 116°
2026-04-25 10:30 19.53142 69.38960 36871 ft 503 kts 116°
2026-04-25 10:31 19.50099 69.45592 36872 ft 502 kts 115°
2026-04-25 10:31 19.47037 69.52286 36870 ft 502 kts 115°
2026-04-25 10:32 19.43988 69.58937 36868 ft 503 kts 116°
2026-04-25 10:32 19.40955 69.65540 36872 ft 503 kts 116°
2026-04-25 10:33 19.37906 69.72203 36871 ft 503 kts 116°
2026-04-25 10:33 19.34844 69.78873 36873 ft 503 kts 116°
2026-04-25 10:34 19.31797 69.85493 36869 ft 503 kts 116°
2026-04-25 10:34 19.28734 69.92133 36876 ft 502 kts 117°
2026-04-25 10:35 19.25669 69.98761 36871 ft 501 kts 117°
2026-04-25 10:35 19.22613 70.05369 36875 ft 501 kts 117°
2026-04-25 10:36 19.19543 70.11995 36873 ft 501 kts 117°
2026-04-25 10:36 19.16533 70.18487 36873 ft 501 kts 117°
2026-04-25 10:37 19.13462 70.25103 36873 ft 501 kts 117°
2026-04-25 10:37 19.10395 70.31701 36872 ft 501 kts 117°
2026-04-25 10:38 19.07325 70.38300 36870 ft 501 kts 117°
2026-04-25 10:38 19.04252 70.44895 36873 ft 502 kts 117°
2026-04-25 10:39 19.01156 70.51536 36869 ft 502 kts 117°
2026-04-25 10:39 18.98094 70.58093 36872 ft 502 kts 117°
2026-04-25 10:40 18.94997 70.64719 36872 ft 503 kts 117°
2026-04-25 10:40 18.91922 70.71318 36872 ft 503 kts 118°
2026-04-25 10:41 18.88821 70.77953 36872 ft 503 kts 118°
2026-04-25 10:41 18.85701 70.84548 36870 ft 503 kts 118°
2026-04-25 10:42 18.82581 70.91160 36872 ft 504 kts 118°
2026-04-25 10:42 18.79466 70.97772 36870 ft 503 kts 118°
2026-04-25 10:43 18.76363 71.04366 36872 ft 504 kts 118°
2026-04-25 10:43 18.73246 71.10983 36862 ft 504 kts 118°
2026-04-25 10:44 18.70129 71.17590 36863 ft 504 kts 118°
2026-04-25 10:44 18.67010 71.24200 36868 ft 505 kts 118°
2026-04-25 10:45 18.63889 71.30801 36849 ft 504 kts 119°
2026-04-25 10:45 18.60764 71.37407 36851 ft 505 kts 119°
2026-04-25 10:46 18.57627 71.44028 36859 ft 505 kts 119°
2026-04-25 10:46 18.54505 71.50607 36845 ft 505 kts 119°
2026-04-25 10:47 18.51364 71.57227 36844 ft 505 kts 119°
2026-04-25 10:47 18.48226 71.63831 36850 ft 505 kts 120°
2026-04-25 10:48 18.45079 71.70467 36845 ft 506 kts 120°
2026-04-25 10:48 18.41948 71.77074 36838 ft 505 kts 120°
2026-04-25 10:49 18.38808 71.83668 36833 ft 506 kts 120°
2026-04-25 10:49 18.35658 71.90265 36838 ft 506 kts 120°
2026-04-25 10:50 18.32490 71.96904 36838 ft 506 kts 121°
2026-04-25 10:50 18.29345 72.03477 36836 ft 507 kts 121°
2026-04-25 10:51 18.26168 72.10109 36827 ft 507 kts 121°
2026-04-25 10:51 18.23006 72.16706 36832 ft 508 kts 121°
2026-04-25 10:52 18.19858 72.23264 36823 ft 507 kts 121°
2026-04-25 10:52 18.16683 72.29872 36824 ft 507 kts 121°
2026-04-25 10:53 18.13487 72.36517 36818 ft 508 kts 121°
2026-04-25 10:53 18.10319 72.43096 36816 ft 508 kts 121°
2026-04-25 10:54 18.07124 72.49728 36824 ft 508 kts 121°
2026-04-25 10:54 18.03934 72.56340 36819 ft 509 kts 122°
2026-04-25 10:55 18.00726 72.62981 36799 ft 509 kts 122°
2026-04-25 10:55 17.97537 72.69596 36814 ft 509 kts 122°
2026-04-25 10:56 17.94353 72.76211 36800 ft 508 kts 122°
2026-04-25 10:56 17.91155 72.82818 36808 ft 509 kts 122°
2026-04-25 10:57 17.87927 72.89450 36803 ft 509 kts 123°
2026-04-25 10:57 17.84717 72.96011 36797 ft 508 kts 123°
2026-04-25 10:58 17.81494 73.02633 36797 ft 508 kts 123°
2026-04-25 10:58 17.78296 73.09215 36804 ft 509 kts 123°
2026-04-25 10:59 17.75064 73.15877 36821 ft 508 kts 123°
2026-04-25 10:59 17.71854 73.22469 36840 ft 509 kts 123°
2026-04-25 11:00 17.68640 73.28999 36845 ft 508 kts 123°
2026-04-25 11:00 17.65416 73.35560 36849 ft 508 kts 123°
2026-04-25 11:01 17.62189 73.42142 36852 ft 508 kts 123°
2026-04-25 11:01 17.58946 73.48759 36842 ft 508 kts 123°
2026-04-25 11:02 17.55728 73.55320 36864 ft 507 kts 123°
2026-04-25 11:02 17.52493 73.61910 36903 ft 508 kts 123°
2026-04-25 11:03 17.49273 73.68476 36961 ft 507 kts 123°
2026-04-25 11:03 17.46066 73.75034 37014 ft 508 kts 123°
2026-04-25 11:04 17.42826 73.81629 37041 ft 507 kts 123°
2026-04-25 11:04 17.39600 73.88180 37034 ft 506 kts 124°
2026-04-25 11:05 17.36353 73.94762 37015 ft 506 kts 124°
2026-04-25 11:05 17.33132 74.01289 37008 ft 507 kts 124°
2026-04-25 11:06 17.29887 74.07855 37010 ft 507 kts 124°
2026-04-25 11:06 17.26653 74.14403 36997 ft 506 kts 124°
2026-04-25 11:07 17.23420 74.20946 36997 ft 507 kts 124°
2026-04-25 11:07 17.20153 74.27533 36994 ft 507 kts 124°
2026-04-25 11:08 17.16907 74.34040 36997 ft 506 kts 124°
2026-04-25 11:08 17.13654 74.40570 36991 ft 505 kts 124°
2026-04-25 11:09 17.10404 74.47102 36992 ft 506 kts 124°
2026-04-25 11:09 17.07161 74.53622 36990 ft 505 kts 124°
2026-04-25 11:10 17.03924 74.60122 36991 ft 505 kts 124°
2026-04-25 11:10 17.00700 74.66594 36996 ft 504 kts 124°
2026-04-25 11:11 16.97481 74.73084 37006 ft 504 kts 124°
2026-04-25 11:11 16.94232 74.79613 37008 ft 503 kts 124°
2026-04-25 11:12 16.91000 74.86086 37000 ft 504 kts 124°
2026-04-25 11:12 16.87744 74.92561 36990 ft 504 kts 124°
2026-04-25 11:13 16.84467 74.99055 36993 ft 503 kts 124°
2026-04-25 11:13 16.81220 75.05514 36974 ft 504 kts 124°
2026-04-25 11:14 16.77964 75.12004 36978 ft 504 kts 124°
2026-04-25 11:14 16.74705 75.18496 36973 ft 504 kts 124°
2026-04-25 11:15 16.71468 75.24943 36972 ft 504 kts 124°
2026-04-25 11:15 16.68204 75.31441 36969 ft 504 kts 124°
2026-04-25 11:16 16.63331 75.41149 36970 ft 503 kts 124°
2026-04-25 11:16 16.60096 75.47644 36964 ft 506 kts 123°
2026-04-25 11:17 16.57015 75.54242 36965 ft 506 kts 122°
2026-04-25 11:17 16.53979 75.60801 36966 ft 506 kts 122°
2026-04-25 11:18 16.50919 75.67420 37089 ft 507 kts 122°
2026-04-25 11:18 16.49400 75.70721 37196 ft 507 kts 122°
2026-04-25 11:18 16.47888 75.74005 37302 ft 506 kts 122°
2026-04-25 11:19 16.44859 75.80559 37460 ft 506 kts 122°
2026-04-25 11:19 16.41782 75.87193 37566 ft 507 kts 122°
2026-04-25 11:20 16.38711 75.93819 37670 ft 507 kts 122°
2026-04-25 11:20 16.35673 76.00352 37794 ft 506 kts 122°
2026-04-25 11:21 16.32544 76.06967 37912 ft 506 kts 122°
2026-04-25 11:21 16.29433 76.13529 37996 ft 506 kts 122°
2026-04-25 11:22 16.26347 76.20056 38043 ft 507 kts 122°
2026-04-25 11:22 16.23253 76.26608 38159 ft 506 kts 122°
2026-04-25 11:23 16.20141 76.33188 38236 ft 506 kts 122°
2026-04-25 11:23 16.17054 76.39716 38359 ft 506 kts 122°
2026-04-25 11:24 16.13928 76.46313 38413 ft 506 kts 122°
2026-04-25 11:24 16.10824 76.52861 38475 ft 506 kts 122°
2026-04-25 11:25 16.07723 76.59399 38544 ft 506 kts 122°
2026-04-25 11:25 16.04621 76.65932 38590 ft 506 kts 122°
2026-04-25 11:26 16.01501 76.72533 38650 ft 505 kts 122°
2026-04-25 11:26 15.98402 76.79067 38645 ft 506 kts 122°
2026-04-25 11:27 15.95287 76.85614 38659 ft 506 kts 122°
2026-04-25 11:27 15.92692 76.91059 38715 ft 505 kts 121°
2026-04-25 11:28 15.89055 76.98676 38755 ft 505 kts 122°
2026-04-25 11:28 15.85909 77.05200 38812 ft 505 kts 121°
2026-04-25 11:29 15.82777 77.11729 38855 ft 505 kts 121°
2026-04-25 11:29 15.79661 77.18246 38889 ft 505 kts 121°
2026-04-25 11:30 15.76542 77.24784 38900 ft 505 kts 121°
2026-04-25 11:30 15.73435 77.31286 38898 ft 506 kts 121°
2026-04-25 11:31 15.70312 77.37799 38898 ft 507 kts 121°
2026-04-25 11:31 15.67185 77.44319 38904 ft 506 kts 121°
2026-04-25 11:32 15.64061 77.50862 38907 ft 507 kts 120°
2026-04-25 11:32 15.60932 77.57423 38908 ft 508 kts 121°
2026-04-25 11:33 15.57805 77.63979 38906 ft 508 kts 120°
2026-04-25 11:33 15.54687 77.70536 38907 ft 508 kts 121°
2026-04-25 11:34 15.51572 77.77081 38908 ft 508 kts 121°
2026-04-25 11:34 15.48431 77.83659 38909 ft 508 kts 121°
2026-04-25 11:35 15.45287 77.90234 38910 ft 509 kts 121°
2026-04-25 11:35 15.42141 77.96802 38916 ft 509 kts 121°
2026-04-25 11:36 15.39006 78.03357 38909 ft 509 kts 121°
2026-04-25 11:36 15.35860 78.09916 38904 ft 510 kts 121°
2026-04-25 11:37 15.32642 78.16493 38894 ft 510 kts 121°
2026-04-25 11:37 15.29434 78.23010 38879 ft 510 kts 121°
2026-04-25 11:38 15.26225 78.29556 38865 ft 510 kts 121°
2026-04-25 11:38 15.23001 78.36137 38863 ft 509 kts 121°
2026-04-25 11:39 15.19802 78.42669 38863 ft 508 kts 121°
2026-04-25 11:39 15.16609 78.49177 38861 ft 508 kts 121°
2026-04-25 11:40 15.13418 78.55679 38864 ft 508 kts 121°
2026-04-25 11:40 15.10232 78.62167 38877 ft 508 kts 121°
2026-04-25 11:41 15.07025 78.68705 38895 ft 507 kts 121°
2026-04-25 11:41 15.03852 78.75188 38904 ft 506 kts 121°
2026-04-25 11:42 15.00669 78.81664 38897 ft 506 kts 121°
2026-04-25 11:42 14.97480 78.88140 38886 ft 506 kts 121°
2026-04-25 11:43 14.94275 78.94637 38868 ft 506 kts 121°
2026-04-25 11:43 14.91089 79.01090 38854 ft 505 kts 121°
2026-04-25 11:44 14.87878 79.07558 38856 ft 505 kts 121°
2026-04-25 11:44 14.84664 79.13997 38850 ft 505 kts 121°
2026-04-25 11:45 14.81450 79.20465 38851 ft 506 kts 121°
2026-04-25 11:45 14.78250 79.26914 38849 ft 506 kts 121°
2026-04-25 11:46 14.75056 79.33354 38844 ft 505 kts 121°
2026-04-25 11:46 14.71838 79.39837 38841 ft 506 kts 121°
2026-04-25 11:47 14.68629 79.46298 38829 ft 505 kts 121°
2026-04-25 11:47 14.65437 79.52718 38826 ft 506 kts 121°
2026-04-25 11:48 14.62226 79.59171 38827 ft 505 kts 121°
2026-04-25 11:48 14.59022 79.65606 38825 ft 505 kts 121°
2026-04-25 11:49 14.55823 79.72056 38817 ft 505 kts 121°
2026-04-25 11:49 14.52624 79.78494 38823 ft 505 kts 121°
2026-04-25 11:50 14.49421 79.84921 38814 ft 505 kts 121°
2026-04-25 11:50 14.46187 79.91393 38811 ft 505 kts 121°
2026-04-25 11:51 14.42983 79.97800 38816 ft 504 kts 121°
2026-04-25 11:51 14.39768 80.04223 38813 ft 505 kts 121°
2026-04-25 11:52 14.36544 80.10664 38814 ft 505 kts 121°
2026-04-25 11:52 14.33340 80.17055 38817 ft 504 kts 121°
2026-04-25 11:53 14.30125 80.23463 38827 ft 504 kts 121°
2026-04-25 11:53 14.26892 80.29905 38827 ft 505 kts 121°
2026-04-25 11:54 14.23683 80.36290 38823 ft 504 kts 121°
2026-04-25 11:55 14.18834 80.45933 38826 ft 505 kts 121°
2026-04-25 11:55 14.15616 80.52328 38839 ft 504 kts 121°
2026-04-25 11:56 14.12390 80.58739 38848 ft 504 kts 121°
2026-04-25 11:56 14.09159 80.65149 38831 ft 504 kts 121°
2026-04-25 11:57 14.05951 80.71547 38844 ft 503 kts 121°
2026-04-25 11:57 14.02740 80.77941 38858 ft 503 kts 121°
2026-04-25 11:58 13.99506 80.84353 38851 ft 503 kts 121°
2026-04-25 11:58 13.96364 80.90776 38862 ft 503 kts 120°
2026-04-25 11:59 13.93251 80.97199 38863 ft 504 kts 120°
2026-04-25 11:59 13.90124 81.03635 38867 ft 503 kts 120°
2026-04-25 12:00 13.85404 81.13254 38870 ft 503 kts 120°
2026-04-25 12:01 13.80722 81.22836 38869 ft 504 kts 120°
2026-04-25 12:01 13.77595 81.29258 38869 ft 504 kts 120°
2026-04-25 12:02 13.72900 81.38908 38869 ft 503 kts 120°
2026-04-25 12:02 13.69749 81.45359 38873 ft 504 kts 120°
2026-04-25 12:03 13.66584 81.51788 38867 ft 504 kts 120°
2026-04-25 12:03 13.63445 81.58173 38872 ft 504 kts 120°
2026-04-25 12:04 13.60295 81.64608 38870 ft 503 kts 120°
2026-04-25 12:04 13.57150 81.71066 38869 ft 504 kts 120°
2026-04-25 12:05 13.54083 81.77357 38872 ft 504 kts 120°
2026-04-25 12:05 13.50952 81.83764 38872 ft 503 kts 120°
2026-04-25 12:06 13.47873 81.90048 38871 ft 503 kts 120°
2026-04-25 12:06 13.44698 81.96522 38872 ft 503 kts 120°
2026-04-25 12:07 13.41541 82.02952 38873 ft 504 kts 120°
2026-04-25 12:07 13.38401 82.09341 38868 ft 503 kts 119°
2026-04-25 12:08 13.35231 82.15792 38870 ft 503 kts 120°
2026-04-25 12:08 13.32093 82.22172 38871 ft 503 kts 120°
2026-04-25 12:09 13.28943 82.28569 38867 ft 503 kts 120°
2026-04-25 12:09 13.25951 82.34641 38870 ft 502 kts 120°
2026-04-25 12:10 13.22818 82.40993 38874 ft 502 kts 119°
2026-04-25 12:10 13.19651 82.47409 38868 ft 502 kts 119°
2026-04-25 12:11 13.16522 82.53748 38866 ft 501 kts 119°
2026-04-25 12:11 13.13363 82.60136 38874 ft 501 kts 119°
2026-04-25 12:12 13.10231 82.66473 38864 ft 500 kts 120°
2026-04-25 12:12 13.07083 82.72868 38871 ft 500 kts 119°
2026-04-25 12:13 13.03955 82.79204 38869 ft 499 kts 120°
2026-04-25 12:13 13.00837 82.85502 38868 ft 499 kts 119°
2026-04-25 12:14 12.97686 82.91853 38868 ft 499 kts 119°
2026-04-25 12:14 12.94542 82.98188 38864 ft 498 kts 119°
2026-04-25 12:15 12.91406 83.04501 38870 ft 498 kts 119°
2026-04-25 12:15 12.88251 83.10824 38865 ft 498 kts 120°
2026-04-25 12:16 12.85115 83.17072 38866 ft 497 kts 120°
2026-04-25 12:16 12.82157 83.22994 38872 ft 497 kts 119°
2026-04-25 12:17 12.79042 83.29247 38869 ft 496 kts 119°
2026-04-25 12:17 12.75973 83.35413 38865 ft 496 kts 119°
2026-04-25 12:18 12.72884 83.41618 38866 ft 496 kts 119°
2026-04-25 12:18 12.69754 83.47916 38869 ft 496 kts 119°
2026-04-25 12:19 12.65093 83.57278 38867 ft 495 kts 119°
2026-04-25 12:20 12.62049 83.63542 38868 ft 494 kts 118°
2026-04-25 12:20 12.59023 83.69846 38871 ft 494 kts 118°
2026-04-25 12:21 12.56028 83.76099 38868 ft 494 kts 118°
2026-04-25 12:21 12.53005 83.82391 38872 ft 493 kts 118°
2026-04-25 12:22 12.49999 83.88632 38867 ft 493 kts 118°
2026-04-25 12:22 12.46982 83.94891 38872 ft 492 kts 118°
2026-04-25 12:23 12.43939 84.01196 38867 ft 492 kts 118°
2026-04-25 12:23 12.40914 84.07461 38869 ft 492 kts 118°
2026-04-25 12:24 12.37888 84.13723 38870 ft 492 kts 118°
2026-04-25 12:24 12.34860 84.19984 38867 ft 491 kts 118°
2026-04-25 12:25 12.31827 84.26251 38868 ft 491 kts 118°
2026-04-25 12:25 12.28802 84.32496 38870 ft 491 kts 118°
2026-04-25 12:26 12.25784 84.38724 38866 ft 490 kts 118°
2026-04-25 12:26 12.22737 84.45008 38871 ft 490 kts 118°
2026-04-25 12:27 12.19719 84.51225 38871 ft 489 kts 118°
2026-04-25 12:27 12.16693 84.57455 38862 ft 489 kts 118°
2026-04-25 12:28 12.13688 84.63639 38871 ft 488 kts 118°
2026-04-25 12:28 12.10677 84.69850 38867 ft 488 kts 118°
2026-04-25 12:29 12.07677 84.76045 38865 ft 487 kts 118°
2026-04-25 12:29 12.04663 84.82247 38870 ft 486 kts 119°
2026-04-25 12:30 12.01650 84.88434 38866 ft 486 kts 118°
2026-04-25 12:30 11.98634 84.94621 38870 ft 486 kts 118°
2026-04-25 12:31 11.95633 85.00770 38868 ft 486 kts 119°
2026-04-25 12:31 11.92626 85.06928 38871 ft 485 kts 119°
2026-04-25 12:32 11.89620 85.13081 38870 ft 485 kts 119°
2026-04-25 12:32 11.86584 85.19228 38868 ft 485 kts 119°
2026-04-25 12:33 11.83561 85.25361 38872 ft 484 kts 118°
2026-04-25 12:33 11.80542 85.31512 38867 ft 484 kts 118°
2026-04-25 12:34 11.77540 85.37633 38868 ft 484 kts 118°
2026-04-25 12:34 11.74540 85.43752 38872 ft 483 kts 118°
2026-04-25 12:35 11.71518 85.49910 38866 ft 483 kts 118°
2026-04-25 12:35 11.68521 85.56016 38872 ft 483 kts 118°
2026-04-25 12:36 11.65494 85.62178 38868 ft 482 kts 118°
2026-04-25 12:36 11.62505 85.68272 38870 ft 482 kts 118°
2026-04-25 12:37 11.59513 85.74388 38871 ft 482 kts 118°
2026-04-25 12:37 11.56518 85.80489 38867 ft 481 kts 118°
2026-04-25 12:38 11.53520 85.86582 38871 ft 481 kts 118°
2026-04-25 12:38 11.50516 85.92681 38868 ft 481 kts 118°
2026-04-25 12:39 11.47530 85.98737 38870 ft 480 kts 118°
2026-04-25 12:39 11.44510 86.04860 38871 ft 480 kts 118°
2026-04-25 12:40 11.41527 86.10899 38869 ft 480 kts 118°
2026-04-25 12:40 11.38513 86.17001 38871 ft 480 kts 118°
2026-04-25 12:41 11.35527 86.23043 38871 ft 480 kts 118°
2026-04-25 12:41 11.32525 86.29112 38873 ft 480 kts 118°
2026-04-25 12:42 11.29516 86.35192 38869 ft 480 kts 118°
2026-04-25 12:42 11.26521 86.41239 38869 ft 480 kts 118°
2026-04-25 12:43 11.23503 86.47327 38873 ft 480 kts 118°
2026-04-25 12:43 11.18992 86.56426 38872 ft 480 kts 118°
2026-04-25 12:44 11.15981 86.62495 38873 ft 480 kts 118°
2026-04-25 12:45 11.11487 86.71571 38868 ft 480 kts 118°
2026-04-25 12:45 11.06988 86.80650 38878 ft 479 kts 118°
2026-04-25 12:46 11.03965 86.86732 38870 ft 479 kts 118°
2026-04-25 12:46 11.00973 86.92744 38870 ft 479 kts 118°
2026-04-25 12:47 10.97958 86.98796 38872 ft 479 kts 118°
2026-04-25 12:47 10.94935 87.04863 38866 ft 479 kts 118°
2026-04-25 12:48 10.91917 87.10912 38869 ft 479 kts 118°
2026-04-25 12:48 10.88909 87.16930 38870 ft 479 kts 118°
2026-04-25 12:49 10.85859 87.22977 38864 ft 479 kts 118°
2026-04-25 12:49 10.82839 87.28989 38867 ft 479 kts 118°
2026-04-25 12:50 10.79812 87.35033 38864 ft 479 kts 117°
2026-04-25 12:50 10.76786 87.41080 38870 ft 479 kts 117°
2026-04-25 12:51 10.73766 87.47113 38866 ft 480 kts 117°
2026-04-25 12:51 10.70730 87.53178 38866 ft 480 kts 117°
2026-04-25 12:52 10.67717 87.59192 38867 ft 479 kts 117°
2026-04-25 12:52 10.64690 87.65231 38865 ft 479 kts 117°
2026-04-25 12:53 10.61688 87.71243 38870 ft 479 kts 117°
2026-04-25 12:53 10.58654 87.77314 38867 ft 479 kts 117°
2026-04-25 12:54 10.55634 87.83336 38865 ft 479 kts 117°
2026-04-25 12:54 10.52609 87.89359 38870 ft 479 kts 117°
2026-04-25 12:55 10.50082 87.94387 38871 ft 479 kts 117°
2026-04-25 12:55 10.46558 88.01395 38865 ft 479 kts 117°
2026-04-25 12:56 10.43526 88.07421 38870 ft 479 kts 117°
2026-04-25 12:56 10.40486 88.13460 38871 ft 478 kts 117°
2026-04-25 12:57 10.37468 88.19456 38867 ft 478 kts 117°
2026-04-25 12:57 10.34431 88.25484 38871 ft 478 kts 117°
2026-04-25 12:58 10.31423 88.31454 38871 ft 478 kts 117°
2026-04-25 12:58 10.28398 88.37457 38867 ft 478 kts 117°
2026-04-25 12:59 10.25365 88.43486 38864 ft 478 kts 117°
2026-04-25 12:59 10.22350 88.49469 38871 ft 477 kts 117°
2026-04-25 13:00 10.19877 88.54479 38870 ft 477 kts 115°
2026-04-25 13:00 10.16597 88.61575 38866 ft 477 kts 115°
2026-04-25 13:01 10.13786 88.67702 38868 ft 477 kts 115°
2026-04-25 13:01 10.11001 88.73805 38872 ft 477 kts 115°
2026-04-25 13:02 10.08219 88.79881 38868 ft 477 kts 114°
2026-04-25 13:02 10.05420 88.85985 38866 ft 477 kts 114°
2026-04-25 13:03 10.02620 88.92084 38871 ft 477 kts 114°
2026-04-25 13:03 9.99831 88.98154 38868 ft 477 kts 114°
2026-04-25 13:04 9.97036 89.04234 38864 ft 476 kts 114°
2026-04-25 13:04 9.94235 89.10321 38871 ft 476 kts 114°
2026-04-25 13:05 9.91431 89.16414 38870 ft 477 kts 114°
2026-04-25 13:05 9.88613 89.22513 38866 ft 477 kts 114°
2026-04-25 13:06 9.85778 89.28597 38868 ft 477 kts 114°
2026-04-25 13:06 9.82946 89.34705 38872 ft 477 kts 114°
2026-04-25 13:07 9.80146 89.40762 38866 ft 477 kts 114°
2026-04-25 13:07 9.77332 89.46853 38867 ft 477 kts 114°
2026-04-25 13:08 9.74518 89.52946 38872 ft 477 kts 114°
2026-04-25 13:08 9.71706 89.59029 38866 ft 477 kts 114°
2026-04-25 13:09 9.68902 89.65095 38867 ft 477 kts 114°
2026-04-25 13:09 9.66096 89.71188 38872 ft 477 kts 114°
2026-04-25 13:10 9.63293 89.77265 38866 ft 477 kts 114°
2026-04-25 13:10 9.60478 89.83352 38866 ft 477 kts 114°
2026-04-25 13:11 9.57650 89.89459 38871 ft 477 kts 114°
2026-04-25 13:11 9.54832 89.95538 38870 ft 478 kts 114°
2026-04-25 13:12 9.52010 90.01621 38865 ft 478 kts 114°
2026-04-25 13:12 9.49659 90.06687 38867 ft 478 kts 114°
2026-04-25 13:13 9.46352 90.13810 38870 ft 478 kts 114°
2026-04-25 13:13 9.43519 90.19908 38867 ft 478 kts 114°
2026-04-25 13:14 9.40696 90.25982 38871 ft 478 kts 114°
2026-04-25 13:14 9.37861 90.32077 38867 ft 478 kts 114°
2026-04-25 13:15 9.35029 90.38163 38870 ft 478 kts 114°
2026-04-25 13:15 9.32176 90.44289 38869 ft 478 kts 114°
2026-04-25 13:16 9.29342 90.50373 38869 ft 478 kts 114°
2026-04-25 13:16 9.26517 90.56435 38870 ft 478 kts 114°
2026-04-25 13:17 9.23678 90.62522 38870 ft 478 kts 114°
2026-04-25 13:17 9.20851 90.68594 38870 ft 478 kts 114°
2026-04-25 13:18 9.18026 90.74674 38872 ft 478 kts 114°
2026-04-25 13:18 9.15199 90.80741 38868 ft 478 kts 114°
2026-04-25 13:19 9.12355 90.86832 38869 ft 478 kts 114°
2026-04-25 13:19 9.09985 90.91904 38871 ft 479 kts 114°
2026-04-25 13:20 9.06669 90.98993 38868 ft 479 kts 114°
2026-04-25 13:20 9.03807 91.05108 38872 ft 479 kts 114°
2026-04-25 13:21 9.00961 91.11185 38864 ft 479 kts 114°
2026-04-25 13:21 8.98118 91.17253 38873 ft 479 kts 114°
2026-04-25 13:22 8.95273 91.23325 38873 ft 479 kts 114°
2026-04-25 13:23 8.90980 91.32478 38863 ft 479 kts 114°
2026-04-25 13:23 8.88114 91.38555 38872 ft 479 kts 115°
2026-04-25 13:24 8.85236 91.44626 38870 ft 479 kts 115°
2026-04-25 13:24 8.82369 91.50705 38868 ft 479 kts 114°
2026-04-25 13:25 8.79526 91.56753 38871 ft 479 kts 114°
2026-04-25 13:25 8.76669 91.62832 38868 ft 479 kts 114°
2026-04-25 13:26 8.73800 91.68950 38875 ft 479 kts 114°
2026-04-25 13:26 8.70960 91.75017 38866 ft 479 kts 114°
2026-04-25 13:27 8.68099 91.81112 38873 ft 479 kts 114°
2026-04-25 13:27 8.65251 91.87175 38865 ft 479 kts 114°
2026-04-25 13:28 8.62386 91.93281 38876 ft 480 kts 114°
2026-04-25 13:28 8.59535 91.99339 38868 ft 480 kts 114°
2026-04-25 13:29 8.56759 92.05451 38869 ft 480 kts 113°
2026-04-25 13:29 8.54034 92.11610 38872 ft 480 kts 113°
2026-04-25 13:30 8.49954 92.20828 38867 ft 480 kts 113°
2026-04-25 13:31 8.45874 92.30033 38869 ft 480 kts 113°
2026-04-25 13:31 8.43139 92.36197 38870 ft 480 kts 113°
2026-04-25 13:32 8.40414 92.42336 38868 ft 480 kts 113°
2026-04-25 13:32 8.37680 92.48494 38871 ft 480 kts 113°
2026-04-25 13:33 8.34957 92.54622 38865 ft 480 kts 113°
2026-04-25 13:33 8.32231 92.60754 38873 ft 480 kts 113°
2026-04-25 13:34 8.29486 92.66931 38867 ft 480 kts 114°
2026-04-25 13:34 8.26779 92.73045 38874 ft 480 kts 114°
2026-04-25 13:35 8.24035 92.79227 38868 ft 480 kts 114°
2026-04-25 13:35 8.21302 92.85368 38868 ft 480 kts 114°
2026-04-25 13:36 8.18558 92.91528 38867 ft 480 kts 114°
2026-04-25 13:36 8.15832 92.97644 38868 ft 480 kts 114°
2026-04-25 13:37 8.13078 93.03822 38871 ft 481 kts 114°
2026-04-25 13:37 8.10348 93.09940 38870 ft 480 kts 114°
2026-04-25 13:38 8.07612 93.16072 38877 ft 480 kts 114°
2026-04-25 13:38 8.04869 93.22218 38865 ft 480 kts 114°
2026-04-25 13:39 8.02127 93.28360 38874 ft 480 kts 114°
2026-04-25 13:39 7.99376 93.34524 38876 ft 480 kts 114°
2026-04-25 13:40 7.96632 93.40674 38867 ft 480 kts 114°
2026-04-25 13:40 7.93891 93.46818 38875 ft 480 kts 114°
2026-04-25 13:41 7.91153 93.52937 38867 ft 480 kts 114°
2026-04-25 13:41 7.88396 93.59082 38870 ft 481 kts 114°
2026-04-25 13:42 7.85632 93.65226 38869 ft 480 kts 114°
2026-04-25 13:42 7.82915 93.71336 38869 ft 480 kts 114°
2026-04-25 13:43 7.80173 93.77518 38870 ft 481 kts 114°
2026-04-25 13:43 7.77454 93.83638 38869 ft 481 kts 114°
2026-04-25 13:44 7.74716 93.89796 38871 ft 481 kts 114°
2026-04-25 13:44 7.71977 93.95950 38867 ft 480 kts 114°
2026-04-25 13:45 7.69253 94.02068 38871 ft 481 kts 114°
2026-04-25 13:45 7.66512 94.08226 38867 ft 481 kts 114°
2026-04-25 13:46 7.63775 94.14371 38869 ft 480 kts 114°
2026-04-25 13:46 7.61047 94.20499 38868 ft 480 kts 114°
2026-04-25 13:47 7.58306 94.26656 38869 ft 480 kts 114°
2026-04-25 13:47 7.55590 94.32766 38868 ft 480 kts 114°
2026-04-25 13:48 7.52858 94.38910 38870 ft 480 kts 114°
2026-04-25 13:48 7.50049 94.45009 38871 ft 480 kts 116°
2026-04-25 13:49 7.47078 94.51030 38866 ft 480 kts 116°
2026-04-25 13:49 7.44126 94.57040 38871 ft 480 kts 116°
2026-04-25 13:50 7.41187 94.63064 38869 ft 480 kts 116°
2026-04-25 13:50 7.38258 94.69101 38866 ft 480 kts 116°
2026-04-25 13:51 7.35352 94.75106 38869 ft 480 kts 116°
2026-04-25 13:51 7.32414 94.81160 38865 ft 480 kts 116°
2026-04-25 13:52 7.29481 94.87193 38871 ft 480 kts 116°
2026-04-25 13:52 7.26559 94.93201 38868 ft 480 kts 116°
2026-04-25 13:53 7.23609 94.99258 38867 ft 481 kts 116°
2026-04-25 13:53 7.20679 95.05276 38867 ft 481 kts 116°
2026-04-25 13:54 7.17733 95.11324 38866 ft 481 kts 116°
2026-04-25 13:54 7.14779 95.17387 38867 ft 480 kts 116°
2026-04-25 13:55 7.11826 95.23441 38864 ft 481 kts 116°
2026-04-25 13:55 7.08882 95.29479 38862 ft 481 kts 116°
2026-04-25 13:56 7.05933 95.35524 38865 ft 481 kts 116°
2026-04-25 13:56 7.02998 95.41536 38857 ft 481 kts 116°
2026-04-25 13:57 7.00062 95.47551 38865 ft 481 kts 116°
2026-04-25 13:57 6.97111 95.53592 38860 ft 481 kts 116°
2026-04-25 13:58 6.94165 95.59624 38858 ft 481 kts 116°
2026-04-25 13:58 6.91208 95.65675 38852 ft 481 kts 116°
2026-04-25 13:59 6.88247 95.71737 38853 ft 481 kts 116°
2026-04-25 13:59 6.85278 95.77775 38852 ft 481 kts 116°
2026-04-25 14:00 6.82312 95.83835 38850 ft 482 kts 116°
2026-04-25 14:00 6.79364 95.89877 38850 ft 481 kts 116°
2026-04-25 14:01 6.76423 95.95905 38848 ft 481 kts 116°
2026-04-25 14:01 6.73448 96.01945 38845 ft 481 kts 116°
2026-04-25 14:02 6.70494 96.07932 38839 ft 481 kts 116°
2026-04-25 14:02 6.67531 96.13969 38844 ft 482 kts 116°
2026-04-25 14:03 6.64570 96.20010 38843 ft 481 kts 116°
2026-04-25 14:03 6.61618 96.26038 38843 ft 481 kts 116°
2026-04-25 14:04 6.58667 96.32069 38843 ft 481 kts 116°
2026-04-25 14:04 6.55718 96.38107 38842 ft 481 kts 116°
2026-04-25 14:05 6.52766 96.44136 38842 ft 481 kts 116°
2026-04-25 14:05 6.50104 96.50278 38843 ft 481 kts 110°
2026-04-25 14:06 6.48046 96.56670 38846 ft 481 kts 106°
2026-04-25 14:06 6.46162 96.63131 38842 ft 481 kts 106°
2026-04-25 14:07 6.44283 96.69585 38846 ft 481 kts 106°
2026-04-25 14:07 6.42406 96.76028 38845 ft 481 kts 106°
2026-04-25 14:08 6.40516 96.82488 38846 ft 482 kts 106°
2026-04-25 14:08 6.38631 96.88915 38847 ft 482 kts 106°
2026-04-25 14:09 6.36736 96.95374 38846 ft 482 kts 106°
2026-04-25 14:09 6.34839 97.01836 38850 ft 482 kts 106°
2026-04-25 14:10 6.32948 97.08273 38846 ft 483 kts 106°
2026-04-25 14:10 6.31036 97.14781 38848 ft 483 kts 106°
2026-04-25 14:11 6.29146 97.21218 38847 ft 483 kts 106°
2026-04-25 14:11 6.27237 97.27715 38847 ft 483 kts 106°
2026-04-25 14:12 6.25337 97.34190 38846 ft 483 kts 106°
2026-04-25 14:12 6.23438 97.40669 38846 ft 484 kts 106°
2026-04-25 14:13 6.21538 97.47133 38846 ft 484 kts 106°
2026-04-25 14:13 6.19261 97.53510 38842 ft 484 kts 113°
2026-04-25 14:14 6.16192 97.59533 38846 ft 485 kts 120°
2026-04-25 14:14 6.12374 97.65129 38843 ft 487 kts 128°
2026-04-25 14:15 6.08021 97.70303 38849 ft 487 kts 130°
2026-04-25 14:15 6.03566 97.75460 38846 ft 488 kts 130°
2026-04-25 14:16 5.99103 97.80625 38849 ft 488 kts 130°
2026-04-25 14:16 5.94670 97.85762 38846 ft 488 kts 130°
2026-04-25 14:17 5.90210 97.90928 38849 ft 488 kts 130°
2026-04-25 14:17 5.85755 97.96060 38846 ft 489 kts 130°
2026-04-25 14:18 5.81292 98.01199 38846 ft 489 kts 130°
2026-04-25 14:18 5.76826 98.06358 38840 ft 489 kts 130°
2026-04-25 14:19 5.72408 98.11468 38842 ft 489 kts 130°
2026-04-25 14:19 5.67943 98.16635 38838 ft 489 kts 130°
2026-04-25 14:20 5.63457 98.21826 38838 ft 489 kts 130°
2026-04-25 14:20 5.58997 98.26984 38836 ft 489 kts 130°
2026-04-25 14:21 5.54539 98.32139 38837 ft 490 kts 130°
2026-04-25 14:21 5.50052 98.37327 38834 ft 490 kts 130°
2026-04-25 14:22 5.45591 98.42483 38835 ft 490 kts 130°
2026-04-25 14:22 5.41133 98.47633 38833 ft 490 kts 130°
2026-04-25 14:23 5.36646 98.52818 38832 ft 489 kts 130°
2026-04-25 14:23 5.32168 98.57990 38832 ft 490 kts 130°
2026-04-25 14:24 5.27727 98.63119 38829 ft 489 kts 130°
2026-04-25 14:24 5.23360 98.68172 38831 ft 490 kts 130°
2026-04-25 14:25 5.18893 98.73358 38827 ft 489 kts 130°
2026-04-25 14:25 5.14446 98.78503 38830 ft 489 kts 130°
2026-04-25 14:26 5.09977 98.83661 38828 ft 489 kts 130°
2026-04-25 14:26 5.05513 98.88813 38830 ft 489 kts 130°
2026-04-25 14:27 5.01034 98.93978 38827 ft 489 kts 130°
2026-04-25 14:27 4.96573 98.99120 38828 ft 489 kts 130°
2026-04-25 14:28 4.92131 99.04241 38823 ft 489 kts 130°
2026-04-25 14:28 4.87652 99.09392 38830 ft 489 kts 130°
2026-04-25 14:29 4.83176 99.14514 38823 ft 489 kts 130°
2026-04-25 14:29 4.78697 99.19660 38831 ft 489 kts 130°
2026-04-25 14:30 4.74233 99.24801 38823 ft 489 kts 130°
2026-04-25 14:30 4.67532 99.32526 38827 ft 489 kts 130°
2026-04-25 14:31 4.63056 99.37686 38826 ft 488 kts 130°
2026-04-25 14:31 4.58604 99.42826 38828 ft 488 kts 130°
2026-04-25 14:32 4.54180 99.47938 38826 ft 487 kts 130°
2026-04-25 14:32 4.49693 99.53057 38823 ft 485 kts 132°
2026-04-25 14:33 4.45003 99.57861 38832 ft 483 kts 134°
2026-04-25 14:33 4.40296 99.62643 38824 ft 482 kts 134°
2026-04-25 14:34 4.35575 99.67468 38830 ft 480 kts 134°
2026-04-25 14:34 4.30935 99.72237 38828 ft 480 kts 134°
2026-04-25 14:35 4.26244 99.77044 38830 ft 480 kts 134°
2026-04-25 14:35 4.21604 99.81792 38827 ft 479 kts 134°
2026-04-25 14:36 4.16931 99.86566 38830 ft 479 kts 134°
2026-04-25 14:36 4.12272 99.91327 38833 ft 479 kts 134°
2026-04-25 14:37 4.07593 99.96107 38826 ft 479 kts 134°
2026-04-25 14:37 4.02933 100.00865 38832 ft 478 kts 134°
2026-04-25 14:38 3.98282 100.05614 38821 ft 478 kts 134°
2026-04-25 14:38 3.93607 100.10387 38824 ft 478 kts 134°
2026-04-25 14:39 3.88973 100.15116 38827 ft 478 kts 134°
2026-04-25 14:39 3.84302 100.19852 38827 ft 477 kts 134°
2026-04-25 14:40 3.79621 100.24615 38821 ft 478 kts 134°
2026-04-25 14:40 3.74976 100.29352 38823 ft 478 kts 134°
2026-04-25 14:41 3.70333 100.34093 38827 ft 477 kts 134°
2026-04-25 14:41 3.65683 100.38842 38825 ft 476 kts 134°
2026-04-25 14:42 3.61801 100.42810 38824 ft 476 kts 134°
2026-04-25 14:42 3.56566 100.48167 38823 ft 477 kts 134°
2026-04-25 14:43 3.51930 100.52912 38826 ft 476 kts 134°
2026-04-25 14:43 3.47301 100.57614 38824 ft 476 kts 134°
2026-04-25 14:44 3.42645 100.62324 38829 ft 475 kts 134°
2026-04-25 14:44 3.38003 100.67050 38825 ft 476 kts 134°
2026-04-25 14:45 3.33359 100.71812 38827 ft 475 kts 134°
2026-04-25 14:45 3.28736 100.76539 38827 ft 475 kts 134°
2026-04-25 14:46 3.24105 100.81265 38828 ft 475 kts 134°
2026-04-25 14:46 3.19494 100.85968 38828 ft 475 kts 134°
2026-04-25 14:47 3.15647 100.89896 38825 ft 475 kts 134°
2026-04-25 14:47 3.10247 100.95412 38828 ft 474 kts 134°
2026-04-25 14:48 3.05620 101.00114 38827 ft 474 kts 134°
2026-04-25 14:48 3.00986 101.04810 38830 ft 473 kts 134°
2026-04-25 14:49 2.96371 101.09502 38828 ft 473 kts 134°
2026-04-25 14:49 2.91737 101.14221 38829 ft 474 kts 134°
2026-04-25 14:50 2.87134 101.18898 38828 ft 474 kts 134°
2026-04-25 14:50 2.82469 101.23623 38828 ft 474 kts 134°
2026-04-25 14:51 2.77854 101.28313 38828 ft 474 kts 134°
2026-04-25 14:51 2.73211 101.33040 38828 ft 474 kts 134°
2026-04-25 14:52 2.68603 101.37734 38829 ft 474 kts 134°
2026-04-25 14:52 2.64769 101.41641 38829 ft 474 kts 134°
2026-04-25 14:53 2.59346 101.47165 38824 ft 475 kts 134°
2026-04-25 14:53 2.54769 101.51828 38825 ft 475 kts 134°
2026-04-25 14:54 2.50113 101.56571 38829 ft 475 kts 134°
2026-04-25 14:54 2.45480 101.61290 38824 ft 475 kts 134°
2026-04-25 14:55 2.40838 101.66020 38828 ft 475 kts 134°
2026-04-25 14:55 2.36252 101.70721 38826 ft 475 kts 134°
2026-04-25 14:56 2.31630 101.75446 38829 ft 475 kts 134°
2026-04-25 14:56 2.27034 101.80133 38828 ft 475 kts 134°
2026-04-25 14:57 2.22418 101.84834 38827 ft 474 kts 134°
2026-04-25 14:57 2.18074 101.89259 38829 ft 474 kts 134°
2026-04-25 14:58 2.13207 101.94221 38828 ft 474 kts 134°
2026-04-25 14:58 2.08793 101.98723 38829 ft 474 kts 133°
2026-04-25 14:59 2.04107 102.03506 38828 ft 474 kts 133°
2026-04-25 14:59 1.99922 102.07830 38823 ft 474 kts 131°
2026-04-25 15:00 1.95368 102.13391 38827 ft 474 kts 125°
2026-04-25 15:00 1.91707 102.18765 38826 ft 473 kts 123°
2026-04-25 15:01 1.88045 102.24244 38829 ft 473 kts 123°
2026-04-25 15:01 1.84373 102.29700 38827 ft 473 kts 123°
2026-04-25 15:02 1.80722 102.35143 38825 ft 473 kts 123°
2026-04-25 15:02 1.77073 102.40591 38825 ft 473 kts 123°
2026-04-25 15:03 1.73415 102.46061 38827 ft 473 kts 123°
2026-04-25 15:03 1.69750 102.51540 38825 ft 472 kts 123°
2026-04-25 15:04 1.66102 102.56995 38829 ft 473 kts 123°
2026-04-25 15:04 1.62457 102.62445 38827 ft 472 kts 123°
2026-04-25 15:05 1.58810 102.67908 38827 ft 472 kts 123°
2026-04-25 15:06 1.53360 102.76096 38826 ft 472 kts 123°
2026-04-25 15:06 1.49698 102.81580 38826 ft 472 kts 123°
2026-04-25 15:07 1.46074 102.87007 38826 ft 472 kts 123°
2026-04-25 15:07 1.42427 102.92476 38828 ft 471 kts 123°
2026-04-25 15:08 1.38772 102.97945 38828 ft 471 kts 123°
2026-04-25 15:08 1.35143 103.03346 38828 ft 471 kts 123°
2026-04-25 15:09 1.31486 103.08799 38830 ft 470 kts 123°
2026-04-25 15:09 1.26025 103.16973 38832 ft 470 kts 123°
2026-04-25 15:10 1.22404 103.22402 38836 ft 470 kts 123°
2026-04-25 15:11 1.16996 103.30517 38838 ft 469 kts 123°
2026-04-25 15:11 1.13406 103.35912 38833 ft 467 kts 123°
2026-04-25 15:12 1.08165 103.44083 38838 ft 467 kts 118°
2026-04-25 15:12 1.06251 103.47931 38831 ft 466 kts 113°
2026-04-25 15:13 1.03465 103.56059 38898 ft 478 kts 103°
2026-04-25 15:14 1.02619 103.60245 38895 ft 483 kts 97°